Flag for U.S.A. Weather past 2 weeks in Portsmouth, Virginia, U.S.A.

Now
70 °F

Mostly cloudy.


Feels Like: 75 °F
Forecast: 65 / 76 °F
Wind: No wind

Location: Norfolk Naval Air Station

Current Time: Sep 19, 2014 at 12:14:10 AM

Latest Report: Sep 18, 2014 at 11:59 PM


Visibility: 10 mi

Pressure: 30.09 "Hg

Humidity: 64%

Dew point: 57 °F

Location of PortsmouthLocation

Historic Weather in Portsmouth — Graph

°F

Portsmouth temperature yesterday

Maximum temperature yesterday: 76 °F (at 11:59 AM)
Minimum temperature yesterday: 63 °F (at 3:59 AM)
Average temperature yesterday: 70 °F

Past Weeks' High & Low Weather Summary

 TemperatureHumidityPressure
High92 °F (Sep 6, 1:59 PM)97% (Sep 9, 3:59 AM)30.29 "Hg (Sep 9, 3:59 AM)
Low63 °F (Sep 18, 3:59 AM)45% (Sep 18, 2:59 PM)29.92 "Hg (Sep 11, 5:59 PM)
Average75 °F74%30.08 "Hg
* Reported Sep 3 10:59 PM — Sep 18 10:59 PM, Portsmouth, Weather by CustomWeather, © 2014

Note: Actual official high and low records may vary slightly from our data, if they occured in-between our weather recording intervals... More about our weather records

Advertising

Portsmouth weather history for previous 24 hours

 ConditionsComfort  
Time TempWeatherWind HumidityBarometerVisibility
10:59 PM
Sep 18
69 °FOvercast.3 mph66%30.08 "Hg10 mi
9:59 PM69 °FPassing clouds.3 mph63%30.08 "Hg10 mi
8:59 PM69 °FPassing clouds.6 mph61%30.07 "Hg10 mi
7:59 PM70 °FBroken clouds.7 mph59%30.05 "Hg10 mi
6:59 PM70 °FPartly sunny.8 mph57%30.03 "Hg10 mi
5:59 PM73 °FScattered clouds.10 mph51%30.02 "Hg10 mi
4:59 PM74 °FPartly sunny.9 mph50%30.02 "Hg10 mi
3:59 PM75 °FScattered clouds.9 mph47%30.02 "Hg10 mi
2:59 PM76 °FPassing clouds.7 mph45%30.03 "Hg10 mi
1:59 PM76 °FPassing clouds.9 mph50%30.03 "Hg10 mi
12:59 PM75 °FPassing clouds.10 mph54%30.03 "Hg10 mi
11:59 AM76 °FPassing clouds.8 mph48%30.03 "Hg10 mi
10:59 AM75 °FPassing clouds.7 mph54%30.03 "Hg10 mi
9:59 AM74 °FPassing clouds.10 mph56%30.02 "Hg10 mi
8:59 AM73 °FPassing clouds.8 mph59%30.00 "Hg10 mi
7:59 AM70 °FPassing clouds.7 mph66%30.00 "Hg10 mi
6:59 AM66 °FPassing clouds.5 mph70%29.99 "Hg10 mi
5:59 AM66 °FClear.5 mph70%29.97 "Hg10 mi
4:59 AM64 °FPassing clouds.No wind78%29.96 "Hg10 mi
3:59 AM63 °FPassing clouds.No wind81%29.95 "Hg10 mi
2:59 AM64 °FClear.No wind81%29.95 "Hg10 mi
1:59 AM64 °FClear.No wind81%29.96 "Hg10 mi
12:59 AM65 °FClear.No wind78%29.97 "Hg10 mi
Weather by CustomWeather, © 2014

See weather overviewHow to use our weather pages